TimeCST,TemperatureF,Dew PointF,Humidity,Sea Level PressureIn,VisibilityMPH,Wind Direction,Wind SpeedMPH,Gust SpeedMPH,PrecipitationIn,Events,Conditions,WindDirDegrees,DateUTC
12:52 AM,53.1,27.0,37,29.83,10.0,West,12.7,-,N/A,,Clear,280,2012-12-17 06:52:00
1:52 AM,51.1,26.1,38,29.85,10.0,WNW,12.7,-,N/A,,Clear,290,2012-12-17 07:52:00
2:52 AM,48.9,24.1,38,29.83,10.0,WNW,11.5,-,N/A,,Clear,290,2012-12-17 08:52:00
3:52 AM,46.9,24.1,41,29.84,10.0,WNW,11.5,-,N/A,,Clear,290,2012-12-17 09:52:00
4:52 AM,46.0,24.1,42,29.87,10.0,West,11.5,-,N/A,,Clear,280,2012-12-17 10:52:00
5:52 AM,44.1,23.0,43,29.88,10.0,West,9.2,-,N/A,,Clear,280,2012-12-17 11:52:00
6:52 AM,43.0,21.9,43,29.93,10.0,WNW,11.5,-,N/A,,Clear,290,2012-12-17 12:52:00
7:52 AM,42.1,21.9,45,29.95,10.0,West,10.4,-,N/A,,Clear,280,2012-12-17 13:52:00
8:52 AM,46.0,21.9,39,29.94,10.0,WNW,10.4,-,N/A,,Clear,290,2012-12-17 14:52:00
9:52 AM,48.9,21.0,33,29.94,10.0,WNW,15.0,-,N/A,,Clear,300,2012-12-17 15:52:00
10:52 AM,52.0,21.9,31,29.94,10.0,West,15.0,21.9,N/A,,Clear,280,2012-12-17 16:52:00
11:52 AM,55.9,21.9,27,29.91,10.0,West,12.7,-,N/A,,Clear,270,2012-12-17 17:52:00
12:52 PM,61.0,21.9,22,29.85,10.0,West,13.8,18.4,N/A,,Clear,270,2012-12-17 18:52:00
1:52 PM,64.9,19.9,18,29.81,10.0,West,24.2,34.5,N/A,,Clear,280,2012-12-17 19:52:00
2:52 PM,66.9,21.0,17,29.80,10.0,WNW,19.6,27.6,N/A,,Clear,290,2012-12-17 20:52:00
3:52 PM,68.0,19.0,15,29.78,10.0,West,17.3,28.8,N/A,,Clear,280,2012-12-17 21:52:00
6:52 PM,55.0,21.9,28,29.82,10.0,SSW,5.8,-,N/A,,Clear,200,2012-12-18 00:52:00
7:52 PM,52.0,23.0,32,29.83,10.0,SW,8.1,-,N/A,,Clear,220,2012-12-18 01:52:00
8:52 PM,54.0,23.0,30,29.84,10.0,SW,6.9,-,N/A,,Clear,220,2012-12-18 02:52:00
9:52 PM,50.0,21.9,33,29.84,10.0,SSW,6.9,-,N/A,,Clear,200,2012-12-18 03:52:00
10:52 PM,50.0,23.0,35,29.84,10.0,SSW,8.1,-,N/A,,Clear,210,2012-12-18 04:52:00
11:52 PM,48.9,24.1,38,29.83,10.0,SW,4.6,-,N/A,,Clear,220,2012-12-18 05:52:00